{"data":{"norad_id":39460,"intl_designator":"2013-071A","name":"SES-8","alt_names":[],"object_type":"PAYLOAD","status":"ACTIVE","operator":null,"country":"SES","launch_date":"2013-12-03","launch_site_code":"AFETR","launch_vehicle":null,"mission":null,"orbit_class":"UNKNOWN","rcs_meters":53.3274,"size_class":null,"mass_kg":null,"dimensions":null,"purposes":["comms"],"wikipedia_slug":null,"has_3d_model":false,"image_url":null,"decayed_at":null,"tle_current":{"epoch":"2026-05-25T02:29:00.063744Z","epoch_age_seconds":63164,"freshness":"FRESH","line1":"1 39460U 13071A   26145.10347296 -.00000272  00000+0  00000+0 0  9994","line2":"2 39460   0.0187 302.2226 0002655 127.0672 305.6645  1.00271666 44196","mean_motion":1.00271666,"eccentricity":0.0002655,"inclination_deg":0.0187,"raan_deg":302.2226,"arg_perigee_deg":127.0672,"mean_anomaly_deg":305.6645,"bstar":0,"rev_number":4419,"period_min":1436.0986083546,"perigee_km":35775.433576051,"apogee_km":35797.823066436,"semimajor_km":42164.765321243,"source":"CELESTRAK","updated_at":"2026-05-25T13:38:14.508310Z"}}}